Temperature
16 16 16 16 16 15 15 15 15 14 14 14 14 14 14 14 14 14 14 13 13 13 13 13 13 13 13 13 13 13 13 13 12 12 12 12 12 12
16 16 16 16 16 15 15 15 15 15 14 14 14 14 13 13 13 13 13 13 13 13 13 13 13 13 13 13 13 12 12 12 12 12 12 12 12 11
16 16 16 16 15 15 15 15 15 14 14 14 14 13 13 13 13 13 13 13 13 12 12 12 12 12 12 12 12 12 12 12 12 12 11 11 11 11
16 16 16 16 15 15 15 15 15 14 14 14 14 13 13 13 13 13 12 12 12 12 12 12 12 12 12 12 11 11 11 11 11 11 11 11 11 11
16 15 15 15 15 15 15 14 14 14 14 14 13 13 13 13 12 12 12 12 12 12 12 12 12 11 11 11 11 11 11 11 11 10 10 10 10 10
15 15 15 15 15 15 14 14 14 14 14 13 13 13 13 12 12 12 12 12 12 11 11 11 11 11 11 11 11 11 10 10 10 10 10 10 10 10
15 15 15 15 14 14 14 14 14 14 13 13 13 13 12 12 12 12 12 11 11 11 11 11 11 11 11 11 10 10 10 10 10 10 9 9 9 9
15 15 15 14 14 14 14 14 13 13 13 13 13 12 12 12 12 11 11 11 11 11 11 11 11 11 11 10 10 10 10 10 9 9 9 9 9 9
15 15 14 14 14 14 14 13 13 13 13 13 13 12 12 12 11 11 11 11 11 11 11 11 11 11 10 10 10 10 10 10 9 9 9 9 9 9
15 14 14 14 14 14 13 13 13 13 13 12 12 12 12 12 11 11 11 11 11 10 10 10 10 10 10 10 10 10 10 9 9 9 9 9 9 9
15 14 14 14 14 13 13 13 13 13 12 12 12 12 11 11 11 11 11 11 10 10 10 10 10 10 10 10 10 10 10 9 9 9 9 9 8 8
14 14 14 13 13 13 13 13 13 12 12 12 12 11 11 11 11 11 11 10 10 10 10 10 10 10 10 10 10 10 9 9 9 9 9 9 8 8
14 14 13 13 13 13 12 12 12 12 12 12 12 11 11 11 11 11 11 10 10 10 10 10 10 10 10 10 10 9 9 9 9 9 9 9 8 8
14 13 13 13 12 12 12 12 12 12 12 11 11 11 11 11 11 11 10 10 10 10 10 10 10 10 10 9 9 9 9 9 9 9 9 8 8 8
13 13 12 12 12 12 12 12 11 11 11 11 11 11 11 11 11 10 10 10 10 10 10 10 10 10 9 9 9 9 9 9 9 9 8 8 8 8
13 12 12 12 12 11 11 11 11 11 11 11 11 11 11 11 11 10 10 10 10 10 10 10 9 9 9 9 9 9 9 9 9 8 8 8 8 8
12 12 12 12 11 11 11 11 11 11 11 11 11 11 10 10 10 10 10 10 10 10 10 9 9 9 9 9 9 9 9 8 8 8 8 8 8 8
12 12 11 11 11 11 11 11 11 11 11 11 10 10 10 10 10 10 9 9 9 9 9 9 9 9 9 9 9 8 8 8 8 8 8 8 8 8
11 11 11 11 11 11 11 11 11 10 10 10 10 10 10 10 9 9 9 9 9 9 9 9 8 8 8 8 8 8 8 8 8 8 8 8 8 8
11 11 11 11 11 11 10 10 10 10 10 10 10 10 9 9 9 9 9 9 9 8 8 8 8 8 8 8 8 8 8 8 8 8 8 8 8 8
11 11 11 11 11 10 10 10 10 10 10 9 9 9 9 9 8 8 8 8 8 8 8 8 8 8 8 8 7 8 8 8 8 8 8 8 7 7
11 11 11 11 10 10 10 10 10 10 9 9 9 9 9 8 8 8 8 8 8 8 8 8 8 8 8 7 7 7 8 8 8 8 7 7 7 7
11 11 10 10 10 10 10 10 9 9 9 9 9 9 8 8 8 8 8 8 8 8 7 7 7 7 7 7 7 7 7 7 7 7 7 7 7 7
Wind_Speed
2 2 2 2 2 2 3 3 3 2 2 1 0 0 1 2 2 3 3 4 5 5 5 5 5 5 4 4 5 5 6 6 5 5 4 4 4 4
1 2 2 1 2 2 3 2 3 3 2 1 1 0 1 2 2 3 3 4 5 4 4 4 4 4 4 4 4 5 5 5 5 5 5 5 5 5
0 1 2 2 2 2 2 3 3 3 2 1 0 0 1 1 2 3 3 3 3 3 3 3 3 3 3 3 3 4 4 4 5 5 5 5 5 5
1 1 1 1 2 2 2 3 3 3 3 3 1 1 0 1 1 1 2 2 2 2 2 3 3 3 3 3 3 3 3 4 4 5 5 6 6 6
2 2 2 2 2 2 2 2 2 3 3 3 2 1 0 1 1 0 1 1 1 1 2 2 2 2 3 3 3 3 3 3 4 5 5 5 5 6
1 2 2 3 3 3 3 3 3 3 3 3 2 1 1 1 1 1 0 0 0 1 1 1 1 1 1 1 1 2 3 3 4 4 4 5 5 5
1 1 2 2 3 3 3 4 4 4 4 3 2 2 2 2 2 2 2 1 1 1 1 0 0 1 1 1 1 2 3 3 4 4 4 4 4 4
2 1 1 1 2 3 4 5 6 6 5 4 3 4 4 3 2 2 2 1 2 1 2 2 1 2 3 3 4 4 4 4 5 4 4 4 4 4
3 2 1 1 2 2 3 4 4 6 7 6 6 5 5 5 5 4 3 3 3 1 2 2 2 3 4 4 5 5 6 6 6 6 5 5 5 4
3 3 3 2 2 3 3 2 2 3 5 5 6 6 5 5 6 4 3 2 2 1 3 2 2 3 3 5 6 7 8 8 7 7 6 6 5 5
2 2 3 3 3 4 4 3 2 2 2 4 5 5 5 7 7 4 3 2 2 3 3 3 2 2 2 3 5 7 9 9 9 8 8 7 7 6
2 2 3 4 4 5 4 4 3 3 2 1 2 2 4 6 8 7 5 4 3 3 3 3 2 2 2 2 2 3 5 7 9 9 9 9 8 6
3 2 2 3 4 4 4 4 4 4 2 2 2 2 2 3 4 5 6 5 4 4 3 4 3 3 3 2 2 3 4 4 5 7 8 9 10 9
4 3 2 4 5 5 4 4 5 4 2 2 2 3 3 3 4 5 6 7 6 6 5 5 4 4 3 2 2 2 3 4 4 5 6 7 8 10
3 4 4 4 4 3 4 5 4 3 3 3 3 3 3 3 3 2 3 3 4 4 5 7 5 4 4 4 3 3 2 3 4 4 5 5 5 5
2 2 3 3 1 1 1 2 3 3 4 4 4 3 2 2 3 2 2 2 2 2 3 6 7 5 4 4 4 4 3 3 3 4 4 5 6 7
3 2 1 1 1 1 1 1 2 2 3 3 3 3 2 2 2 2 2 2 3 3 3 2 3 5 5 4 4 5 4 4 4 4 4 5 6 7
4 2 3 3 3 3 3 3 3 3 4 4 4 4 3 3 3 2 2 3 4 4 4 2 1 1 1 4 7 6 5 5 4 4 4 5 6 6
3 3 4 4 4 4 4 4 4 4 3 4 4 4 4 3 3 3 3 4 4 5 4 3 3 3 4 5 4 8 6 4 3 3 4 5 6 6
4 5 5 5 5 5 5 4 4 3 3 4 4 4 4 4 4 5 5 5 5 5 4 4 5 6 6 6 4 4 9 7 5 5 5 4 4 5
5 5 5 5 5 5 5 5 4 4 4 4 4 5 5 5 5 5 5 6 6 5 6 6 6 7 4 3 3 4 4 9 9 6 5 4 4 3
5 6 5 5 5 5 5 5 4 5 5 5 5 5 5 6 6 6 6 6 6 6 7 5 3 4 4 6 7 6 5 4 6 9 9 8 4 5
6 6 6 6 6 5 5 6 6 5 5 5 5 5 6 6 6 6 6 7 6 7 6 5 4 4 5 6 7 6 6 5 3 3 4 7 10 12
Wind_Direction
205 207 218 226 202 197 182 179 176 208 238 212 218 35 66 75 74 83 78 72 75 74 76 78 79 82 83 83 84 92 106 106 105 101 96 91 82 87
195 197 219 224 199 187 183 182 184 189 211 214 217 227 126 94 72 85 83 79 77 74 78 80 81 84 88 93 96 100 110 114 114 113 107 98 92 87
170 190 218 187 180 186 181 180 177 169 191 229 202 164 130 116 82 81 78 80 78 76 78 81 85 87 91 94 99 107 112 118 125 123 115 105 96 93
229 202 229 183 169 182 180 184 181 175 179 189 193 162 142 160 137 111 90 94 98 84 86 90 94 96 96 99 106 110 123 131 131 126 115 107 101 96
227 218 232 186 189 188 181 181 178 164 156 163 174 156 123 142 120 99 92 69 87 81 80 82 88 90 91 94 99 108 121 135 135 126 119 114 109 107
221 216 219 204 206 194 182 181 170 159 149 149 149 140 144 171 163 174 207 317 242 105 89 78 89 101 103 111 123 134 138 136 134 130 128 125 121 117
205 230 222 197 193 195 186 181 172 170 164 162 160 157 173 182 201 206 212 241 259 235 247 290 262 247 233 222 203 189 183 183 178 169 163 154 145 138
209 235 229 208 193 190 185 180 176 176 183 184 191 192 205 205 201 189 186 194 244 224 216 251 233 256 251 239 233 221 214 210 209 203 193 187 179 173
210 219 232 236 205 195 188 182 190 189 186 188 194 202 200 197 190 194 201 214 236 203 193 245 241 252 252 247 234 225 221 219 218 216 210 204 198 189
215 207 206 226 216 184 178 180 199 205 203 202 207 211 207 196 193 196 200 217 243 201 187 234 237 246 257 249 238 227 223 220 218 218 216 213 212 210
231 218 206 210 207 178 168 178 199 241 228 214 211 204 196 187 175 162 164 189 240 230 200 224 241 250 253 253 251 235 227 224 223 224 226 225 223 223
237 235 215 204 198 183 178 179 200 235 227 204 193 189 189 186 181 186 190 201 227 238 203 207 220 215 251 245 244 231 225 228 228 228 229 227 220 214
222 231 233 205 198 193 190 200 213 212 210 203 207 207 198 197 199 202 202 204 216 235 203 195 210 209 223 242 242 226 221 223 222 227 230 230 223 214
211 213 212 204 202 200 199 204 199 184 184 192 207 216 219 225 229 228 225 223 227 239 217 195 208 204 201 217 239 235 236 231 221 226 231 228 224 223
212 205 205 202 199 202 204 201 191 183 183 197 218 229 230 232 230 229 228 229 237 238 215 205 207 201 206 216 219 214 225 236 220 224 225 221 219 215
212 198 194 196 180 189 202 201 198 197 198 213 225 231 224 215 218 217 216 211 234 250 228 215 210 204 218 225 219 224 221 226 226 229 229 228 225 220
164 141 144 172 198 220 224 224 223 208 212 222 222 221 222 226 231 214 209 209 224 241 246 231 223 222 227 219 223 232 231 234 233 219 218 233 238 232
148 173 199 212 221 227 230 236 233 230 229 227 224 223 225 229 237 231 218 223 235 242 241 235 192 177 230 244 223 233 238 241 239 216 214 229 245 241
173 206 220 225 229 230 231 235 238 236 226 224 225 226 227 229 234 240 235 236 242 247 247 231 210 207 232 259 244 216 227 238 228 225 224 225 240 245
214 224 230 231 231 233 236 240 244 243 233 228 227 229 229 230 234 238 237 240 244 243 242 230 221 219 226 242 252 244 220 223 225 234 241 239 249 261
225 232 235 235 237 237 239 238 237 236 235 232 232 231 231 231 237 241 242 239 239 240 242 243 240 228 229 221 243 253 244 222 221 227 226 230 244 245
232 236 240 240 237 237 238 236 236 236 235 235 237 236 234 234 239 241 242 243 241 242 245 250 239 214 211 226 244 254 261 260 241 235 227 217 222 228
235 236 239 240 238 237 236 233 232 236 235 236 239 238 235 236 240 241 244 244 244 242 243 244 234 222 225 230 242 251 253 254 255 247 252 246 244 249
Height
1547 1547 1547 1548 1548 1548 1548 1549 1550 1549 1549 1550 1550 1550 1550 1550 1550 1550 1549 1549 1548 1547 1547 1546 1545 1545 1544 1544 1544 1544 1544 1545 1545 1545 1545 1546 1546 1546
1545 1545 1545 1545 1546 1546 1546 1546 1547 1548 1547 1548 1548 1549 1549 1549 1548 1548 1548 1548 1547 1546 1545 1545 1544 1543 1543 1543 1543 1543 1543 1543 1543 1543 1544 1544 1544 1544
1543 1543 1543 1543 1543 1543 1543 1543 1544 1544 1545 1545 1546 1547 1547 1547 1547 1547 1546 1546 1546 1545 1545 1544 1543 1542 1542 1542 1542 1542 1542 1542 1542 1542 1542 1542 1542 1542
1541 1541 1541 1541 1541 1541 1541 1541 1541 1542 1542 1542 1543 1544 1545 1545 1545 1545 1545 1545 1544 1544 1543 1543 1542 1541 1541 1541 1540 1540 1540 1541 1541 1541 1541 1541 1541 1541
1539 1539 1538 1538 1538 1538 1538 1538 1539 1539 1540 1540 1540 1541 1542 1542 1543 1543 1543 1543 1543 1542 1542 1541 1541 1541 1540 1540 1539 1539 1539 1539 1539 1540 1540 1540 1540 1540
1537 1537 1536 1536 1536 1536 1536 1536 1536 1537 1537 1537 1538 1539 1539 1540 1540 1541 1541 1541 1541 1541 1541 1540 1540 1539 1539 1539 1538 1538 1538 1538 1538 1538 1538 1539 1539 1539
1534 1534 1534 1534 1533 1534 1533 1533 1534 1534 1535 1535 1535 1536 1536 1537 1538 1538 1539 1539 1539 1539 1539 1539 1538 1538 1538 1537 1537 1537 1536 1537 1537 1537 1537 1537 1537 1537
1532 1532 1531 1531 1531 1531 1531 1531 1532 1532 1532 1533 1533 1533 1534 1535 1535 1536 1536 1536 1537 1538 1537 1537 1536 1536 1536 1535 1535 1535 1535 1535 1535 1535 1536 1536 1536 1536
1529 1529 1529 1529 1529 1529 1529 1529 1529 1530 1530 1531 1530 1530 1531 1532 1533 1533 1534 1534 1534 1535 1535 1534 1534 1534 1534 1533 1533 1533 1534 1534 1534 1534 1534 1534 1534 1534
1526 1526 1526 1526 1526 1526 1526 1526 1526 1527 1527 1528 1528 1528 1529 1530 1530 1531 1531 1532 1532 1532 1532 1532 1532 1531 1531 1531 1531 1531 1531 1532 1532 1532 1532 1532 1532 1532
1523 1522 1522 1523 1523 1522 1522 1522 1523 1524 1524 1525 1526 1526 1527 1527 1528 1528 1529 1529 1529 1529 1529 1529 1529 1529 1529 1528 1528 1528 1528 1529 1529 1530 1530 1530 1530 1530
1520 1519 1519 1519 1519 1519 1519 1519 1520 1521 1521 1522 1523 1523 1524 1524 1525 1525 1525 1526 1526 1526 1526 1526 1526 1526 1525 1525 1525 1525 1526 1526 1527 1527 1527 1528 1528 1529
1516 1516 1516 1516 1515 1516 1516 1517 1517 1518 1518 1519 1519 1520 1521 1521 1522 1522 1522 1522 1523 1523 1523 1523 1522 1522 1523 1522 1522 1522 1523 1523 1523 1524 1524 1525 1525 1526
1512 1512 1512 1513 1512 1513 1513 1514 1515 1515 1515 1515 1516 1516 1517 1518 1518 1519 1519 1519 1519 1519 1519 1519 1519 1519 1518 1518 1518 1518 1519 1519 1519 1520 1521 1521 1522 1522
1509 1509 1510 1510 1510 1510 1510 1511 1512 1512 1512 1512 1513 1513 1514 1514 1515 1515 1515 1515 1516 1516 1515 1515 1515 1515 1515 1514 1514 1514 1515 1515 1516 1516 1517 1517 1518 1518
1505 1506 1506 1507 1507 1507 1507 1508 1508 1509 1508 1509 1509 1510 1511 1511 1511 1511 1511 1511 1511 1511 1511 1511 1511 1511 1510 1510 1510 1510 1511 1511 1511 1512 1513 1513 1514 1514
1502 1502 1502 1503 1503 1503 1504 1504 1505 1505 1505 1505 1506 1506 1506 1506 1506 1507 1506 1506 1506 1506 1507 1507 1507 1506 1506 1506 1506 1506 1506 1506 1507 1508 1508 1508 1509 1509
1498 1498 1499 1499 1500 1500 1500 1500 1501 1501 1501 1501 1501 1501 1501 1502 1502 1502 1502 1502 1501 1502 1502 1502 1502 1502 1502 1502 1503 1502 1502 1502 1503 1503 1504 1504 1504 1505
1494 1495 1495 1496 1496 1496 1496 1496 1496 1497 1497 1496 1497 1497 1497 1497 1497 1497 1497 1497 1497 1497 1497 1498 1498 1497 1497 1497 1498 1499 1498 1498 1499 1499 1499 1499 1499 1500
1490 1491 1491 1492 1492 1492 1492 1492 1492 1492 1492 1492 1492 1492 1492 1492 1492 1492 1492 1491 1492 1492 1492 1492 1492 1492 1492 1493 1493 1493 1494 1494 1494 1494 1494 1494 1495 1495
1486 1487 1487 1487 1487 1487 1487 1487 1487 1487 1487 1486 1487 1487 1486 1486 1486 1487 1486 1486 1487 1487 1486 1487 1487 1488 1488 1489 1488 1488 1489 1490 1490 1490 1490 1489 1489 1489
1483 1483 1483 1483 1483 1483 1483 1482 1482 1481 1481 1481 1481 1481 1481 1481 1481 1481 1481 1481 1481 1481 1481 1482 1482 1483 1483 1483 1482 1483 1484 1484 1485 1485 1485 1485 1484 1483
1478 1478 1478 1478 1478 1478 1477 1477 1476 1476 1476 1476 1476 1476 1476 1476 1476 1476 1476 1475 1475 1475 1476 1476 1476 1477 1477 1477 1477 1477 1478 1478 1479 1479 1479 1479 1479 1479